Stevens Point, WI

5:53 PM CDT on August 23, 2016 (GMT -0500)
Stevens Point Municipal

Weather History for KSTE - November, 2014

Change the Weather History Date:

Wednesday, November 26, 2014

  Actual Average Record
Temperature  
Mean Temperature 16 °F -  
Max Temperature 22 °F 37 °F 55 °F (1960)
Min Temperature 10 °F 23 °F -9 °F (1977)
Degree Days  
Heating Degree Days 49    
Moisture  
Dew Point 15 °F    
Average Humidity 91    
Maximum Humidity 96    
Minimum Humidity 80    
Precipitation  
Precipitation 0.00 in - - ()
Sea Level Pressure  
Sea Level Pressure 30.15 in    
Wind  
Wind Speed 1 mph (NNW)    
Max Wind Speed 8 mph    
Max Gust Speed -    
Visibility 7 miles    
Events Snow    
Averages and records for this station are not official NWS values.
T = Trace of Precipitation, MM = Missing Value Source: NWS Daily Summary

Daily Weather History Graph

Daily Weather History Graph

Search for Another Location

Airport or City:

Trip Planner

Search our weather history database for the weather conditions in past years. The results will help you decide how hot, cold, wet, or windy it might be!

Date:

Astronomy

Nov. 26, 2014 Rise Set
Actual Time 7:08 AM CST 4:21 PM CST
Civil Twilight 6:36 AM CST 4:54 PM CST
Nautical Twilight 6:00 AM CST 5:30 PM CST
Astronomical Twilight 5:25 AM CST 6:05 PM CST
Moon 10:37 AM CST (11/26) 8:57 PM CST (11/26)
Length of Visible Light 10h 17m
Length of Day
9h 13m
Waxing Crescent, 21% of the Moon is Illuminated
Nov 26
Waxing Crescent
Nov 29
First Quarter
Dec 6
Full
Dec 14
Last Quarter
Dec 21
New

Hourly Weather History & Observations

Time (CST) Temp. Windchill Dew Point Humidity Pressure Visibility Wind Dir Wind Speed Gust Speed Precip Events Conditions
12:15 AM 10.2 °F - 8.2 °F 92% 30.12 in 10.0 mi Calm Calm - N/A   Overcast
12:35 AM 10.8 °F - 8.6 °F 91% 30.12 in 10.0 mi Calm Calm - N/A   Overcast
12:55 AM 10.9 °F - 8.6 °F 90% 30.13 in 10.0 mi Calm Calm - N/A   Overcast
1:15 AM 12.2 °F 4.3 °F 10.4 °F 92% 30.12 in 10.0 mi ESE 4.6 mph - N/A   Overcast
1:35 AM 12.9 °F - 11.1 °F 93% 30.13 in 10.0 mi Calm Calm - N/A   Overcast
1:55 AM 13.1 °F - 11.3 °F 93% 30.12 in 10.0 mi Calm Calm - N/A   Overcast
2:15 AM 13.5 °F - 11.8 °F 93% 30.12 in 10.0 mi Calm Calm - N/A   Overcast
2:35 AM 13.5 °F - 11.8 °F 93% 30.13 in 10.0 mi Calm Calm - N/A   Overcast
2:55 AM 13.8 °F - 12.2 °F 93% 30.13 in 10.0 mi Calm Calm - N/A   Overcast
3:15 AM 12.9 °F 5.2 °F 11.1 °F 93% 30.12 in 10.0 mi East 4.6 mph - N/A   Overcast
3:35 AM 12.6 °F - 10.8 °F 92% 30.12 in 10.0 mi Calm Calm - N/A   Overcast
3:55 AM 12.0 °F - 10.2 °F 92% 30.12 in 10.0 mi Calm Calm - N/A   Overcast
4:15 AM 12.4 °F 6.3 °F 10.6 °F 92% 30.11 in 10.0 mi East 3.5 mph - N/A   Overcast
4:35 AM 11.8 °F - 9.9 °F 92% 30.11 in 10.0 mi Calm Calm - N/A   Overcast
4:55 AM 12.0 °F - 10.2 °F 92% 30.11 in 7.0 mi Calm Calm - N/A   Overcast
5:15 AM 12.0 °F 5.9 °F 10.0 °F 92% 30.10 in 7.0 mi East 3.5 mph - N/A   Overcast
5:35 AM 12.2 °F 6.1 °F 10.4 °F 92% 30.10 in 7.0 mi East 3.5 mph - N/A   Overcast
5:55 AM 12.2 °F 6.1 °F 10.4 °F 92% 30.11 in 7.0 mi East 3.5 mph - N/A   Overcast
6:15 AM 12.6 °F - 10.8 °F 92% 30.11 in 7.0 mi Calm Calm - N/A   Overcast
6:35 AM 12.6 °F - 10.8 °F 92% 30.12 in 7.0 mi Calm Calm - N/A   Overcast
6:55 AM 12.7 °F - 10.9 °F 92% 30.13 in 7.0 mi Calm Calm - N/A   Overcast
7:15 AM 12.9 °F - 11.1 °F 93% 30.13 in 5.0 mi Calm Calm - N/A   Overcast
7:35 AM 12.9 °F - 11.1 °F 93% 30.14 in 5.0 mi Calm Calm - N/A   Overcast
7:55 AM 13.1 °F 7.1 °F 11.3 °F 93% 30.13 in 5.0 mi East 3.5 mph - N/A   Overcast
8:15 AM 13.5 °F - 11.8 °F 93% 30.14 in 5.0 mi Calm Calm - N/A   Overcast
8:35 AM 13.8 °F - 12.2 °F 93% 30.14 in 5.0 mi Calm Calm - N/A   Overcast
8:55 AM 14.0 °F - 12.6 °F 94% 30.14 in 5.0 mi Calm Calm - N/A   Overcast
9:15 AM 14.9 °F 7.5 °F 13.3 °F 93% 30.14 in 5.0 mi East 4.6 mph - N/A   Overcast
9:35 AM 15.4 °F 8.1 °F 14.0 °F 94% 30.14 in 7.0 mi ESE 4.6 mph - N/A   Overcast
9:55 AM 16.2 °F 7.6 °F 14.7 °F 94% 30.14 in 5.0 mi SE 5.8 mph - N/A   Overcast
10:15 AM 16.7 °F 8.3 °F 15.3 °F 94% 30.15 in 7.0 mi SE 5.8 mph - N/A   Overcast
10:35 AM 16.9 °F - 15.6 °F 95% 30.15 in 7.0 mi Calm Calm - N/A   Scattered Clouds
10:55 AM 17.8 °F 12.5 °F 16.5 °F 95% 30.15 in 7.0 mi SSE 3.5 mph - N/A   Scattered Clouds
11:15 AM 18.1 °F 12.9 °F 16.7 °F 94% 30.14 in 7.0 mi SSW 3.5 mph - N/A   Scattered Clouds
11:35 AM 18.5 °F - 17.2 °F 95% 30.14 in 7.0 mi Calm Calm - N/A   Mostly Cloudy
11:55 AM 18.5 °F - 17.1 °F 94% 30.13 in 7.0 mi Calm Calm - N/A   Mostly Cloudy
12:15 PM 18.5 °F - 16.7 °F 93% 30.13 in 7.0 mi Calm Calm - N/A   Scattered Clouds
12:35 PM 19.4 °F - 16.7 °F 89% 30.13 in 7.0 mi Calm Calm - N/A   Mostly Cloudy
12:55 PM 19.9 °F - 16.3 °F 86% 30.14 in 7.0 mi Calm Calm - N/A   Scattered Clouds
1:15 PM 20.3 °F - 16.3 °F 85% 30.14 in 7.0 mi Calm Calm - N/A   Clear
1:35 PM 21.2 °F - 16.3 °F 82% 30.13 in 10.0 mi Calm Calm - N/A   Mostly Cloudy
1:55 PM 21.6 °F - 16.3 °F 80% 30.14 in 10.0 mi Calm Calm - N/A   Overcast
2:15 PM 21.9 °F - 16.7 °F 80% 30.14 in 10.0 mi Calm Calm - N/A   Overcast
2:35 PM 21.9 °F - 17.4 °F 83% 30.14 in 7.0 mi Calm Calm - N/A   Scattered Clouds
2:55 PM 22.1 °F - 17.6 °F 83% 30.14 in 7.0 mi Calm Calm - N/A   Mostly Cloudy
3:15 PM 21.9 °F - 17.6 °F 83% 30.15 in 10.0 mi Calm Calm - N/A   Overcast
3:35 PM 21.6 °F - 18.1 °F 87% 30.16 in 7.0 mi Calm Calm - N/A   Mostly Cloudy
3:55 PM 20.8 °F - 18.1 °F 89% 30.16 in 7.0 mi Calm Calm - N/A   Overcast
4:15 PM 20.5 °F - 18.7 °F 93% 30.16 in 5.0 mi Calm Calm - N/A   Mostly Cloudy
4:35 PM 19.2 °F - 17.8 °F 94% 30.16 in 4.0 mi Calm Calm - N/A   Mostly Cloudy
4:55 PM 18.9 °F - 18.0 °F 96% 30.16 in 4.0 mi Calm Calm - N/A   Overcast
5:15 PM 18.7 °F - 17.6 °F 96% 30.17 in 5.0 mi Calm Calm - N/A   Overcast
5:35 PM 20.3 °F - 18.9 °F 94% 30.17 in 7.0 mi Calm Calm - N/A   Overcast
5:55 PM 21.6 °F 16.8 °F 18.3 °F 87% 30.17 in 10.0 mi WNW 3.5 mph - N/A   Overcast
6:15 PM 21.6 °F - 18.3 °F 87% 30.17 in 5.0 mi Calm Calm - N/A   Overcast
6:35 PM 21.6 °F - 18.9 °F 89% 30.17 in 4.0 mi Calm Calm - N/A   Overcast
6:55 PM 21.6 °F 16.8 °F 19.4 °F 91% 30.18 in 4.0 mi WNW 3.5 mph - N/A Snow Light Snow
7:15 PM 21.7 °F 17.0 °F 19.9 °F 93% 30.18 in 2.0 mi WNW 3.5 mph - N/A Snow Light Snow
7:35 PM 21.7 °F 17.0 °F 20.1 °F 93% 30.17 in 2.0 mi NW 3.5 mph - N/A   Overcast
7:55 PM 21.7 °F 15.5 °F 20.1 °F 93% 30.18 in 2.0 mi WNW 4.6 mph - N/A   Overcast
8:15 PM 21.7 °F 15.5 °F 20.1 °F 93% 30.18 in 2.5 mi WNW 4.6 mph - N/A Snow Light Snow
8:35 PM 21.7 °F 17.0 °F 19.9 °F 93% 30.18 in 3.0 mi WNW 3.5 mph - N/A   Overcast
8:55 PM 21.7 °F 17.0 °F 19.9 °F 93% 30.18 in 4.0 mi WNW 3.5 mph - N/A   Overcast
9:15 PM 21.6 °F 16.8 °F 19.4 °F 91% 30.18 in 7.0 mi WNW 3.5 mph - N/A   Overcast
9:35 PM 21.0 °F 16.2 °F 18.9 °F 91% 30.18 in 10.0 mi WNW 3.5 mph - N/A   Overcast
9:55 PM 20.3 °F - 18.3 °F 92% 30.19 in 10.0 mi Calm Calm - N/A   Mostly Cloudy
10:15 PM 20.3 °F 13.8 °F 18.1 °F 91% 30.19 in 10.0 mi NW 4.6 mph - N/A   Overcast
10:35 PM 20.1 °F 12.3 °F 17.6 °F 90% 30.20 in 10.0 mi NW 5.8 mph - N/A   Overcast
10:55 PM 20.1 °F 11.3 °F 16.9 °F 87% 30.21 in 10.0 mi NNW 6.9 mph - N/A   Overcast
11:15 PM 20.1 °F 11.3 °F 16.2 °F 85% 30.22 in 10.0 mi NW 6.9 mph - N/A   Overcast
11:35 PM 19.9 °F 11.1 °F 15.6 °F 83% 30.22 in 10.0 mi NW 6.9 mph - N/A   Overcast
11:55 PM 19.4 °F 9.5 °F 15.3 °F 84% 30.22 in 10.0 mi NNW 8.1 mph - N/A   Overcast